Time,TemperatureF,DewpointF,PressureIn,WindDirection,WindDirectionDegrees,WindSpeedMPH,WindSpeedGustMPH,Humidity,HourlyPrecipIn,Conditions,Clouds,dailyrainin,SoftwareType,DateUTC
2013-03-05 00:01:00,27.0,23.0,-100.00,WNW,285,15.0,20.0,83,0.00,,,0.00,,2013-03-05 06:01:00,
2013-03-05 00:11:00,27.0,23.0,-100.00,WNW,285,14.0,20.0,84,0.00,,,0.00,,2013-03-05 06:11:00,
2013-03-05 00:22:00,27.0,23.0,-100.00,WNW,290,16.0,22.0,85,0.00,,,0.00,,2013-03-05 06:22:00,
2013-03-05 00:31:00,27.0,23.0,-100.00,WNW,290,15.0,22.0,86,0.00,,,0.00,,2013-03-05 06:31:00,
2013-03-05 00:41:00,26.0,23.0,-100.00,WNW,290,16.0,19.0,86,0.00,,,0.00,,2013-03-05 06:41:00,
2013-03-05 00:52:00,26.0,23.0,-100.00,WNW,300,15.0,26.0,86,0.00,,,0.00,,2013-03-05 06:52:00,
2013-03-05 01:01:00,26.0,21.0,-100.00,WNW,300,18.0,24.0,86,0.00,,,0.00,,2013-03-05 07:01:00,
2013-03-05 01:11:00,26.0,21.0,-100.00,WNW,295,17.0,26.0,86,0.00,,,0.00,,2013-03-05 07:11:00,
2013-03-05 01:21:00,25.0,21.0,-100.00,NW,305,15.0,21.0,85,0.00,,,0.00,,2013-03-05 07:21:00,
2013-03-05 01:31:00,25.0,21.0,-100.00,NW,310,13.0,17.0,85,0.00,,,0.00,,2013-03-05 07:31:00,
2013-03-05 01:41:00,25.0,21.0,-100.00,WNW,295,11.0,14.0,86,0.00,,,0.00,,2013-03-05 07:41:00,
2013-03-05 01:51:00,25.0,21.0,-100.00,WNW,290,12.0,15.0,87,0.00,,,0.00,,2013-03-05 07:51:00,
2013-03-05 02:02:00,25.0,21.0,-100.00,WNW,285,12.0,17.0,89,0.00,,,0.00,,2013-03-05 08:02:00,
2013-03-05 02:11:00,25.0,23.0,-100.00,WNW,285,12.0,16.0,90,0.00,,,0.00,,2013-03-05 08:11:00,
2013-03-05 02:21:00,24.0,23.0,-100.00,West,280,11.0,15.0,91,0.00,,,0.00,,2013-03-05 08:21:00,
2013-03-05 02:31:00,25.0,23.0,-100.00,West,275,12.0,16.0,92,0.00,,,0.00,,2013-03-05 08:31:00,
2013-03-05 02:41:00,24.0,23.0,-100.00,West,280,17.0,21.0,93,0.00,,,0.00,,2013-03-05 08:41:00,
2013-03-05 02:52:00,24.0,23.0,-100.00,WNW,290,15.0,20.0,92,0.00,,,0.00,,2013-03-05 08:52:00,
2013-03-05 03:01:00,24.0,21.0,-100.00,WNW,285,16.0,19.0,91,0.00,,,0.00,,2013-03-05 09:01:00,
2013-03-05 03:11:00,24.0,21.0,-100.00,WNW,285,16.0,20.0,91,0.00,,,0.00,,2013-03-05 09:11:00,
2013-03-05 03:21:00,24.0,21.0,-100.00,WNW,285,14.0,19.0,91,0.00,,,0.00,,2013-03-05 09:21:00,
2013-03-05 03:31:00,24.0,21.0,-100.00,WNW,290,12.0,17.0,91,0.00,,,0.00,,2013-03-05 09:31:00,
2013-03-05 03:42:00,24.0,21.0,-100.00,WNW,290,9.0,15.0,91,0.00,,,0.00,,2013-03-05 09:42:00,
2013-03-05 03:52:00,24.0,21.0,-100.00,WNW,290,12.0,14.0,91,0.00,,,0.00,,2013-03-05 09:52:00,
2013-03-05 04:01:00,24.0,21.0,-100.00,West,280,11.0,14.0,91,0.00,,,0.00,,2013-03-05 10:01:00,
2013-03-05 04:11:00,24.0,21.0,-100.00,WNW,285,10.0,14.0,92,0.00,,,0.00,,2013-03-05 10:11:00,
2013-03-05 04:21:00,24.0,21.0,-100.00,WNW,285,10.0,14.0,92,0.00,,,0.00,,2013-03-05 10:21:00,
2013-03-05 04:32:00,24.0,21.0,-100.00,West,275,11.0,13.0,93,0.00,,,0.00,,2013-03-05 10:32:00,
2013-03-05 04:42:00,24.0,23.0,-100.00,West,265,11.0,13.0,94,0.00,,,0.00,,2013-03-05 10:42:00,
2013-03-05 04:52:00,24.0,23.0,-100.00,West,260,9.0,13.0,95,0.00,,,0.00,,2013-03-05 10:52:00,
2013-03-05 05:01:00,24.0,23.0,-100.00,West,275,9.0,12.0,95,0.00,,,0.00,,2013-03-05 11:01:00,
2013-03-05 05:11:00,24.0,23.0,-100.00,West,275,7.0,11.0,96,0.00,,,0.00,,2013-03-05 11:11:00,
2013-03-05 05:22:00,24.0,23.0,-100.00,WNW,295,6.0,9.0,97,0.00,,,0.00,,2013-03-05 11:22:00,
2013-03-05 05:32:00,24.0,23.0,-100.00,WNW,300,6.0,7.0,97,0.00,,,0.00,,2013-03-05 11:32:00,
2013-03-05 05:42:00,24.0,23.0,-100.00,NW,315,5.0,6.0,97,0.00,,,0.00,,2013-03-05 11:42:00,
2013-03-05 05:52:00,24.0,23.0,-100.00,NNW,330,5.0,7.0,97,0.00,,,0.00,,2013-03-05 11:52:00,
2013-03-05 06:02:00,24.0,23.0,-100.00,NNW,340,7.0,9.0,98,0.00,,,0.00,,2013-03-05 12:02:00,
2013-03-05 06:11:00,24.0,23.0,-100.00,NNW,335,9.0,11.0,98,0.00,,,0.00,,2013-03-05 12:11:00,
2013-03-05 06:22:00,23.0,23.0,-100.00,NW,325,7.0,9.0,98,0.00,,,0.00,,2013-03-05 12:22:00,
2013-03-05 06:32:00,23.0,23.0,-100.00,NNW,335,7.0,9.0,98,0.00,,,0.00,,2013-03-05 12:32:00,
2013-03-05 06:42:00,23.0,23.0,-100.00,NNW,340,7.0,10.0,98,0.00,,,0.00,,2013-03-05 12:42:00,
2013-03-05 06:52:00,23.0,23.0,-100.00,NNW,330,8.0,10.0,98,0.00,,,0.00,,2013-03-05 12:52:00,
2013-03-05 07:02:00,23.0,23.0,-100.00,NW,320,9.0,13.0,98,0.00,,,0.00,,2013-03-05 13:02:00,
2013-03-05 07:11:00,23.0,23.0,-100.00,NNW,330,11.0,13.0,98,0.00,,,0.00,,2013-03-05 13:11:00,
2013-03-05 07:21:00,24.0,23.0,-100.00,NNW,335,12.0,16.0,98,0.00,,,0.00,,2013-03-05 13:21:00,
2013-03-05 07:32:00,24.0,23.0,-100.00,NNW,335,11.0,17.0,98,0.00,,,0.00,,2013-03-05 13:32:00,
2013-03-05 07:42:00,24.0,23.0,-100.00,NNW,345,12.0,16.0,98,0.00,,,0.00,,2013-03-05 13:42:00,
2013-03-05 08:11:00,25.0,25.0,-100.00,NNW,340,21.0,24.0,98,0.00,,,0.00,,2013-03-05 14:11:00,
2013-03-05 08:21:00,25.0,25.0,-100.00,North,350,19.0,25.0,98,0.00,,,0.00,,2013-03-05 14:21:00,
2013-03-05 08:32:00,25.0,25.0,-100.00,NNW,345,24.0,29.0,97,0.00,,,0.00,,2013-03-05 14:32:00,
2013-03-05 08:42:00,25.0,25.0,-100.00,North,350,26.0,31.0,97,0.00,,,0.00,,2013-03-05 14:42:00,
2013-03-05 09:01:00,24.0,23.0,-100.00,North,0,30.0,40.0,99,0.00,,,0.00,,2013-03-05 15:01:00,
2013-03-05 09:11:00,24.0,23.0,-100.00,North,0,29.0,40.0,99,0.00,,,0.00,,2013-03-05 15:11:00,
2013-03-05 09:21:00,23.0,23.0,-100.00,North,355,26.0,33.0,99,0.00,,,0.00,,2013-03-05 15:21:00,
2013-03-05 09:32:00,23.0,23.0,-100.00,North,0,29.0,36.0,99,0.00,,,0.00,,2013-03-05 15:32:00,
2013-03-05 09:42:00,23.0,23.0,-100.00,North,355,24.0,33.0,98,0.00,,,0.00,,2013-03-05 15:42:00,
2013-03-05 09:51:00,24.0,23.0,-100.00,North,0,22.0,30.0,96,0.00,,,0.00,,2013-03-05 15:51:00,
2013-03-05 10:01:00,24.0,23.0,-100.00,North,350,26.0,35.0,95,0.00,,,0.00,,2013-03-05 16:01:00,
2013-03-05 10:11:00,24.0,23.0,-100.00,North,350,25.0,32.0,93,0.00,,,0.00,,2013-03-05 16:11:00,
2013-03-05 10:21:00,24.0,23.0,-100.00,North,355,25.0,33.0,92,0.00,,,0.00,,2013-03-05 16:21:00,
2013-03-05 10:32:00,25.0,23.0,-100.00,North,350,24.0,34.0,91,0.00,,,0.00,,2013-03-05 16:32:00,
2013-03-05 10:42:00,25.0,21.0,-100.00,North,350,25.0,34.0,90,0.00,,,0.00,,2013-03-05 16:42:00,
2013-03-05 10:51:00,24.0,21.0,-100.00,North,0,28.0,35.0,89,0.00,,,0.00,,2013-03-05 16:51:00,
2013-03-05 11:01:00,25.0,21.0,-100.00,North,355,28.0,35.0,89,0.00,,,0.00,,2013-03-05 17:01:00,
2013-03-05 11:11:00,25.0,23.0,-100.00,North,0,26.0,35.0,88,0.00,,,0.00,,2013-03-05 17:11:00,
2013-03-05 11:21:00,25.0,21.0,-100.00,North,350,30.0,35.0,87,0.00,,,0.00,,2013-03-05 17:21:00,
2013-03-05 11:32:00,26.0,23.0,-100.00,North,0,26.0,36.0,87,0.00,,,0.00,,2013-03-05 17:32:00,
2013-03-05 11:41:00,26.0,23.0,-100.00,North,350,28.0,35.0,86,0.00,,,0.00,,2013-03-05 17:41:00,
2013-03-05 11:52:00,26.0,23.0,-100.00,North,350,24.0,35.0,85,0.00,,,0.00,,2013-03-05 17:52:00,
2013-03-05 12:01:00,26.0,23.0,-100.00,North,350,24.0,34.0,87,0.00,,,0.00,,2013-03-05 18:01:00,
2013-03-05 12:11:00,26.0,23.0,-100.00,North,350,27.0,34.0,87,0.00,,,0.00,,2013-03-05 18:11:00,
2013-03-05 12:21:00,26.0,23.0,-100.00,North,0,26.0,32.0,87,0.00,,,0.00,,2013-03-05 18:21:00,
2013-03-05 12:32:00,27.0,23.0,-100.00,North,355,27.0,35.0,85,0.00,,,0.00,,2013-03-05 18:32:00,
2013-03-05 12:42:00,26.0,23.0,-100.00,North,350,27.0,33.0,84,0.00,,,0.00,,2013-03-05 18:42:00,
2013-03-05 12:52:00,26.0,21.0,-100.00,North,0,27.0,34.0,83,0.00,,,0.00,,2013-03-05 18:52:00,
2013-03-05 13:01:00,26.0,21.0,-100.00,North,355,29.0,35.0,82,0.00,,,0.00,,2013-03-05 19:01:00,
2013-03-05 13:11:00,26.0,21.0,-100.00,NNW,345,30.0,35.0,82,0.00,,,0.00,,2013-03-05 19:11:00,
2013-03-05 13:21:00,26.0,21.0,-100.00,North,350,27.0,34.0,82,0.00,,,0.00,,2013-03-05 19:21:00,
2013-03-05 13:32:00,26.0,21.0,-100.00,North,350,26.0,37.0,82,0.00,,,0.00,,2013-03-05 19:32:00,
2013-03-05 13:42:00,26.0,21.0,-100.00,North,350,32.0,41.0,80,0.00,,,0.00,,2013-03-05 19:42:00,
2013-03-05 13:51:00,26.0,21.0,-100.00,NNW,345,27.0,35.0,82,0.00,,,0.00,,2013-03-05 19:51:00,
2013-03-05 14:01:00,25.0,21.0,-100.00,NNW,345,28.0,33.0,86,0.00,,,0.00,,2013-03-05 20:01:00,
2013-03-05 14:11:00,25.0,21.0,-100.00,North,355,24.0,34.0,86,0.00,,,0.00,,2013-03-05 20:11:00,
2013-03-05 14:21:00,25.0,21.0,-100.00,NNW,345,24.0,30.0,87,0.00,,,0.00,,2013-03-05 20:21:00,
2013-03-05 14:32:00,25.0,21.0,-100.00,North,350,27.0,34.0,87,0.00,,,0.00,,2013-03-05 20:32:00,
2013-03-05 14:41:00,25.0,21.0,-100.00,North,350,27.0,33.0,86,0.00,,,0.00,,2013-03-05 20:41:00,
2013-03-05 14:52:00,25.0,21.0,-100.00,North,350,24.0,35.0,85,0.00,,,0.00,,2013-03-05 20:52:00,
2013-03-05 15:02:00,25.0,19.0,-100.00,North,0,29.0,37.0,82,0.00,,,0.00,,2013-03-05 21:02:00,
2013-03-05 15:11:00,25.0,19.0,-100.00,North,0,26.0,37.0,82,0.00,,,0.00,,2013-03-05 21:11:00,
2013-03-05 15:21:00,25.0,19.0,-100.00,North,355,26.0,34.0,82,0.00,,,0.00,,2013-03-05 21:21:00,
2013-03-05 15:31:00,25.0,19.0,-100.00,North,0,23.0,31.0,82,0.00,,,0.00,,2013-03-05 21:31:00,
2013-03-05 15:41:00,25.0,21.0,-100.00,North,0,24.0,31.0,83,0.00,,,0.00,,2013-03-05 21:41:00,
2013-03-05 15:52:00,25.0,19.0,-100.00,North,355,27.0,33.0,82,0.00,,,0.00,,2013-03-05 21:52:00,
2013-03-05 16:01:00,25.0,19.0,-100.00,North,0,28.0,34.0,81,0.00,,,0.00,,2013-03-05 22:01:00,
2013-03-05 16:11:00,25.0,19.0,-100.00,North,0,25.0,33.0,81,0.00,,,0.00,,2013-03-05 22:11:00,
2013-03-05 16:21:00,25.0,19.0,-100.00,North,355,22.0,29.0,81,0.00,,,0.00,,2013-03-05 22:21:00,
2013-03-05 16:32:00,25.0,21.0,-100.00,North,0,23.0,29.0,83,0.00,,,0.00,,2013-03-05 22:32:00,
2013-03-05 16:41:00,25.0,21.0,-100.00,North,350,22.0,30.0,83,0.00,,,0.00,,2013-03-05 22:41:00,
2013-03-05 16:52:00,25.0,21.0,-100.00,North,350,23.0,29.0,82,0.00,,,0.00,,2013-03-05 22:52:00,
2013-03-05 17:01:00,25.0,21.0,-100.00,North,355,21.0,27.0,83,0.00,,,0.00,,2013-03-05 23:01:00,
2013-03-05 17:11:00,25.0,19.0,-100.00,North,0,22.0,28.0,83,0.00,,,0.00,,2013-03-05 23:11:00,
2013-03-05 17:21:00,24.0,19.0,-100.00,North,355,22.0,29.0,83,0.00,,,0.00,,2013-03-05 23:21:00,
2013-03-05 17:32:00,24.0,21.0,-100.00,North,0,18.0,25.0,86,0.00,,,0.00,,2013-03-05 23:32:00,
2013-03-05 17:41:00,24.0,21.0,-100.00,North,350,20.0,27.0,86,0.00,,,0.00,,2013-03-05 23:41:00,
2013-03-05 17:52:00,24.0,21.0,-100.00,North,350,21.0,30.0,86,0.00,,,0.00,,2013-03-05 23:52:00,
2013-03-05 18:01:00,24.0,21.0,-100.00,North,350,19.0,26.0,87,0.00,,,0.00,,2013-03-06 00:01:00,
2013-03-05 18:11:00,23.0,19.0,-100.00,NNW,345,21.0,29.0,86,0.00,,,0.00,,2013-03-06 00:11:00,
2013-03-05 18:21:00,23.0,19.0,-100.00,NNW,345,26.0,30.0,83,0.00,,,0.00,,2013-03-06 00:21:00,
2013-03-05 18:32:00,23.0,19.0,-100.00,North,350,22.0,28.0,82,0.00,,,0.00,,2013-03-06 00:32:00,
2013-03-05 18:41:00,23.0,19.0,-100.00,North,355,18.0,25.0,85,0.00,,,0.00,,2013-03-06 00:41:00,
2013-03-05 18:51:00,23.0,19.0,-100.00,North,350,17.0,22.0,86,0.00,,,0.00,,2013-03-06 00:51:00,
2013-03-05 19:01:00,23.0,19.0,-100.00,NNW,345,18.0,22.0,87,0.00,,,0.00,,2013-03-06 01:01:00,
2013-03-05 19:11:00,23.0,19.0,-100.00,NNW,345,17.0,21.0,87,0.00,,,0.00,,2013-03-06 01:11:00,
2013-03-05 19:21:00,23.0,19.0,-100.00,North,350,17.0,24.0,88,0.00,,,0.00,,2013-03-06 01:21:00,
2013-03-05 19:32:00,23.0,19.0,-100.00,North,355,15.0,22.0,88,0.00,,,0.00,,2013-03-06 01:32:00,
2013-03-05 19:41:00,23.0,19.0,-100.00,North,0,15.0,20.0,89,0.00,,,0.00,,2013-03-06 01:41:00,
2013-03-05 19:51:00,23.0,19.0,-100.00,North,0,16.0,20.0,89,0.00,,,0.00,,2013-03-06 01:51:00,
2013-03-05 20:01:00,23.0,19.0,-100.00,North,0,12.0,17.0,89,0.00,,,0.00,,2013-03-06 02:01:00,
2013-03-05 20:11:00,23.0,19.0,-100.00,North,355,14.0,21.0,89,0.00,,,0.00,,2013-03-06 02:11:00,
2013-03-05 20:21:00,23.0,19.0,-100.00,North,355,18.0,23.0,88,0.00,,,0.00,,2013-03-06 02:21:00,
2013-03-05 20:32:00,22.0,19.0,-100.00,North,0,19.0,24.0,88,0.00,,,0.00,,2013-03-06 02:32:00,
2013-03-05 20:41:00,22.0,19.0,-100.00,North,0,25.0,29.0,88,0.00,,,0.00,,2013-03-06 02:41:00,
2013-03-05 20:52:00,22.0,18.0,-100.00,North,5,21.0,27.0,86,0.00,,,0.00,,2013-03-06 02:52:00,
2013-03-05 21:01:00,22.0,18.0,-100.00,North,5,18.0,26.0,85,0.00,,,0.00,,2013-03-06 03:01:00,
2013-03-05 21:11:00,22.0,18.0,-100.00,North,0,19.0,24.0,85,0.00,,,0.00,,2013-03-06 03:11:00,
2013-03-05 21:21:00,21.0,18.0,-100.00,North,0,21.0,26.0,85,0.00,,,0.00,,2013-03-06 03:21:00,
2013-03-05 21:31:00,21.0,18.0,-100.00,North,0,19.0,25.0,85,0.00,,,0.00,,2013-03-06 03:31:00,
2013-03-05 21:41:00,21.0,18.0,-100.00,North,0,12.0,20.0,86,0.00,,,0.00,,2013-03-06 03:41:00,
2013-03-05 21:52:00,21.0,18.0,-100.00,North,0,19.0,24.0,86,0.00,,,0.00,,2013-03-06 03:52:00,
2013-03-05 22:02:00,21.0,18.0,-100.00,North,5,19.0,26.0,86,0.00,,,0.00,,2013-03-06 04:02:00,
2013-03-05 22:11:00,21.0,18.0,-100.00,North,0,16.0,22.0,86,0.00,,,0.00,,2013-03-06 04:11:00,
2013-03-05 22:21:00,21.0,18.0,-100.00,North,0,10.0,17.0,86,0.00,,,0.00,,2013-03-06 04:21:00,
2013-03-05 22:32:00,21.0,18.0,-100.00,North,10,13.0,17.0,86,0.00,,,0.00,,2013-03-06 04:32:00,
2013-03-05 22:41:00,21.0,18.0,-100.00,North,0,17.0,24.0,87,0.00,,,0.00,,2013-03-06 04:41:00,
2013-03-05 22:51:00,21.0,18.0,-100.00,North,5,14.0,22.0,87,0.00,,,0.00,,2013-03-06 04:51:00,
2013-03-05 23:01:00,21.0,18.0,-100.00,North,0,14.0,19.0,87,0.00,,,0.00,,2013-03-06 05:01:00,
2013-03-05 23:11:00,21.0,18.0,-100.00,North,0,12.0,19.0,87,0.00,,,0.00,,2013-03-06 05:11:00,
2013-03-05 23:22:00,21.0,18.0,-100.00,North,5,14.0,21.0,87,0.00,,,0.00,,2013-03-06 05:22:00,
2013-03-05 23:32:00,21.0,18.0,-100.00,North,5,13.0,18.0,87,0.00,,,0.00,,2013-03-06 05:32:00,
2013-03-05 23:42:00,21.0,18.0,-100.00,North,0,12.0,17.0,87,0.00,,,0.00,,2013-03-06 05:42:00,
2013-03-05 23:52:00,21.0,18.0,-100.00,North,0,12.0,17.0,87,0.00,,,0.00,,2013-03-06 05:52:00,